Year,Month,Day,Hour,Minute,Value (Times are PST for temperature in C)
2014,08,15,00,00,15.20
2014,08,15,00,01,15.20
2014,08,15,00,02,15.20
2014,08,15,00,03,15.20
2014,08,15,00,04,15.30
2014,08,15,00,05,15.30
2014,08,15,00,06,15.30
2014,08,15,00,07,15.30
2014,08,15,00,08,15.30
2014,08,15,00,09,15.30
2014,08,15,00,10,15.30
2014,08,15,00,11,15.40
2014,08,15,00,12,15.40
2014,08,15,00,13,15.40
2014,08,15,00,14,15.40
2014,08,15,00,15,15.40
2014,08,15,00,16,15.50
2014,08,15,00,17,15.50
2014,08,15,00,18,15.50
2014,08,15,00,19,15.50
2014,08,15,00,20,15.60
2014,08,15,00,21,15.60
2014,08,15,00,22,15.60
2014,08,15,00,23,15.60
2014,08,15,00,24,15.60
2014,08,15,00,25,15.60
2014,08,15,00,26,15.60
2014,08,15,00,27,15.70
2014,08,15,00,28,15.70
2014,08,15,00,29,15.70
2014,08,15,00,30,15.70
2014,08,15,00,31,15.70
2014,08,15,00,32,15.60
2014,08,15,00,33,15.60
2014,08,15,00,34,15.60
2014,08,15,00,35,15.70
2014,08,15,00,36,15.60
2014,08,15,00,37,15.60
2014,08,15,00,38,15.70
2014,08,15,00,39,15.70
2014,08,15,00,40,15.70
2014,08,15,00,41,15.70
2014,08,15,00,42,15.70
2014,08,15,00,43,15.70
2014,08,15,00,44,15.70
2014,08,15,00,45,15.70
2014,08,15,00,46,15.70
2014,08,15,00,47,15.70
2014,08,15,00,48,15.70
2014,08,15,00,49,15.70
2014,08,15,00,50,15.70
2014,08,15,00,51,15.70
2014,08,15,00,52,15.70
2014,08,15,00,53,15.70
2014,08,15,00,54,15.70
2014,08,15,00,55,15.60
2014,08,15,00,56,15.60
2014,08,15,00,57,15.50
2014,08,15,00,58,15.50
2014,08,15,00,59,15.40
2014,08,15,01,00,15.30
2014,08,15,01,01,15.30
2014,08,15,01,02,15.20
2014,08,15,01,03,15.20
2014,08,15,01,04,15.10
2014,08,15,01,05,15.00
2014,08,15,01,06,15.00
2014,08,15,01,07,14.90
2014,08,15,01,08,14.90
2014,08,15,01,09,14.80
2014,08,15,01,10,14.80
2014,08,15,01,11,14.70
2014,08,15,01,12,14.70
2014,08,15,01,13,14.70
2014,08,15,01,14,14.60
2014,08,15,01,15,14.50
2014,08,15,01,16,14.40
2014,08,15,01,17,14.30
2014,08,15,01,18,14.30
2014,08,15,01,19,14.10
2014,08,15,01,20,14.00
2014,08,15,01,21,13.90
2014,08,15,01,22,13.80
2014,08,15,01,23,13.70
2014,08,15,01,24,13.60
2014,08,15,01,25,13.50
2014,08,15,01,26,13.40
2014,08,15,01,27,13.40
2014,08,15,01,28,13.30
2014,08,15,01,29,13.30
2014,08,15,01,30,13.30
2014,08,15,01,31,13.30
2014,08,15,01,32,13.30
2014,08,15,01,33,13.20
2014,08,15,01,34,13.20
2014,08,15,01,35,13.20
2014,08,15,01,36,13.20
2014,08,15,01,37,13.30
2014,08,15,01,38,13.30
2014,08,15,01,39,13.30
2014,08,15,01,40,13.30
2014,08,15,01,41,13.30
2014,08,15,01,42,13.30
2014,08,15,01,43,13.30
2014,08,15,01,44,13.30
2014,08,15,01,45,13.30
2014,08,15,01,46,13.30
2014,08,15,01,47,13.30
2014,08,15,01,48,13.30
2014,08,15,01,49,13.30
2014,08,15,01,50,13.30
2014,08,15,01,51,13.20
2014,08,15,01,52,13.20
2014,08,15,01,53,13.20
2014,08,15,01,54,13.20
2014,08,15,01,55,13.20
2014,08,15,01,56,13.20
2014,08,15,01,57,13.20
2014,08,15,01,58,13.20
2014,08,15,01,59,13.20
2014,08,15,02,00,13.20
2014,08,15,02,01,13.20
2014,08,15,02,02,13.20
2014,08,15,02,03,13.20
2014,08,15,02,04,13.10
2014,08,15,02,05,13.10
2014,08,15,02,06,13.10
2014,08,15,02,07,13.10
2014,08,15,02,08,13.00
2014,08,15,02,09,12.90
2014,08,15,02,10,12.90
2014,08,15,02,11,12.90
2014,08,15,02,12,12.80
2014,08,15,02,13,12.80
2014,08,15,02,14,12.80
2014,08,15,02,15,12.80
2014,08,15,02,16,12.80
2014,08,15,02,17,12.80
2014,08,15,02,18,12.80
2014,08,15,02,19,12.80
2014,08,15,02,20,12.80
2014,08,15,02,21,12.80
2014,08,15,02,22,12.80
2014,08,15,02,23,12.80
2014,08,15,02,24,12.80
2014,08,15,02,25,12.80
2014,08,15,02,26,12.80
2014,08,15,02,27,12.80
2014,08,15,02,28,12.90
2014,08,15,02,29,12.90
2014,08,15,02,30,12.90
2014,08,15,02,31,12.90
2014,08,15,02,32,12.90
2014,08,15,02,33,12.90
2014,08,15,02,34,12.90
2014,08,15,02,35,12.90
2014,08,15,02,36,12.90
2014,08,15,02,37,12.90
2014,08,15,02,38,12.90
2014,08,15,02,39,13.00
2014,08,15,02,40,13.00
2014,08,15,02,41,13.00
2014,08,15,02,42,13.00
2014,08,15,02,43,13.10
2014,08,15,02,44,13.10
2014,08,15,02,45,13.10
2014,08,15,02,46,13.10
2014,08,15,02,47,13.20
2014,08,15,02,48,13.20
2014,08,15,02,49,13.20
2014,08,15,02,50,13.20
2014,08,15,02,51,13.20
2014,08,15,02,52,13.20
2014,08,15,02,53,13.20
2014,08,15,02,54,13.20
2014,08,15,02,55,13.30
2014,08,15,02,56,13.30
2014,08,15,02,57,13.30
2014,08,15,02,58,13.30
2014,08,15,02,59,13.30
2014,08,15,03,00,13.40
2014,08,15,03,01,13.40
2014,08,15,03,02,13.40
2014,08,15,03,03,13.40
2014,08,15,03,04,13.40
2014,08,15,03,05,13.40
2014,08,15,03,06,13.40
2014,08,15,03,07,13.50
2014,08,15,03,08,13.50
2014,08,15,03,09,13.50
2014,08,15,03,10,13.50
2014,08,15,03,11,13.60
2014,08,15,03,12,13.60
2014,08,15,03,13,13.60
2014,08,15,03,14,13.60
2014,08,15,03,15,13.60
2014,08,15,03,16,13.60
2014,08,15,03,17,13.60
2014,08,15,03,18,13.60
2014,08,15,03,19,13.60
2014,08,15,03,20,13.70
2014,08,15,03,21,13.70
2014,08,15,03,22,13.70
2014,08,15,03,23,13.70
2014,08,15,03,24,13.70
2014,08,15,03,25,13.70
2014,08,15,03,26,13.70
2014,08,15,03,27,13.70
2014,08,15,03,28,13.70
2014,08,15,03,29,13.70
2014,08,15,03,30,13.80
2014,08,15,03,31,13.80
2014,08,15,03,32,13.80
2014,08,15,03,33,13.80
2014,08,15,03,34,13.80
2014,08,15,03,35,13.80
2014,08,15,03,36,13.80
2014,08,15,03,37,13.80
2014,08,15,03,38,13.80
2014,08,15,03,39,13.80
2014,08,15,03,40,13.80
2014,08,15,03,41,13.80
2014,08,15,03,42,13.80
2014,08,15,03,43,13.80
2014,08,15,03,44,13.90
2014,08,15,03,45,13.90
2014,08,15,03,46,13.90
2014,08,15,03,47,13.90
2014,08,15,03,48,13.90
2014,08,15,03,49,14.00
2014,08,15,03,50,14.00
2014,08,15,03,51,14.00
2014,08,15,03,52,14.00
2014,08,15,03,53,14.10
2014,08,15,03,54,14.10
2014,08,15,03,55,14.10
2014,08,15,03,56,14.00
2014,08,15,03,57,14.00
2014,08,15,03,58,14.00
2014,08,15,03,59,13.90
2014,08,15,04,00,13.90
2014,08,15,04,01,13.90
2014,08,15,04,02,13.90
2014,08,15,04,03,13.90
2014,08,15,04,04,13.90
2014,08,15,04,05,13.90
2014,08,15,04,06,13.90
2014,08,15,04,07,13.90
2014,08,15,04,08,13.80
2014,08,15,04,09,13.80
2014,08,15,04,10,13.80
2014,08,15,04,11,13.80
2014,08,15,04,12,13.80
2014,08,15,04,13,13.80
2014,08,15,04,14,13.90
2014,08,15,04,15,13.90
2014,08,15,04,16,13.90
2014,08,15,04,17,13.90
2014,08,15,04,18,13.90
2014,08,15,04,19,13.90
2014,08,15,04,20,14.00
2014,08,15,04,21,14.00
2014,08,15,04,22,14.00
2014,08,15,04,23,14.00
2014,08,15,04,24,14.00
2014,08,15,04,25,14.10
2014,08,15,04,26,14.10
2014,08,15,04,27,14.10
2014,08,15,04,28,14.10
2014,08,15,04,29,14.10
2014,08,15,04,30,14.10
2014,08,15,04,31,14.10
2014,08,15,04,32,14.10
2014,08,15,04,33,14.10
2014,08,15,04,34,14.10
2014,08,15,04,35,14.10
2014,08,15,04,36,14.10
2014,08,15,04,37,14.10
2014,08,15,04,38,14.10
2014,08,15,04,39,14.10
2014,08,15,04,40,14.10
2014,08,15,04,41,14.10
2014,08,15,04,42,14.00
2014,08,15,04,43,14.00
2014,08,15,04,44,14.00
2014,08,15,04,45,14.00
2014,08,15,04,46,14.00
2014,08,15,04,47,14.10
2014,08,15,04,48,14.10
2014,08,15,04,49,14.10
2014,08,15,04,50,14.10
2014,08,15,04,51,14.10
2014,08,15,04,52,14.10
2014,08,15,04,53,14.10
2014,08,15,04,54,14.10
2014,08,15,04,55,14.10
2014,08,15,04,56,14.10
2014,08,15,04,57,14.00
2014,08,15,04,58,14.00
2014,08,15,04,59,14.00
2014,08,15,05,00,14.00
2014,08,15,05,01,14.00
2014,08,15,05,02,13.90
2014,08,15,05,03,13.90
2014,08,15,05,04,13.90
2014,08,15,05,05,13.90
2014,08,15,05,06,13.90
2014,08,15,05,07,13.90
2014,08,15,05,08,13.90
2014,08,15,05,09,13.90
2014,08,15,05,10,13.90
2014,08,15,05,11,13.80
2014,08,15,05,12,13.80
2014,08,15,05,13,13.80
2014,08,15,05,14,13.80
2014,08,15,05,15,13.80
2014,08,15,05,16,13.80
2014,08,15,05,17,13.80
2014,08,15,05,18,13.80
2014,08,15,05,19,13.80
2014,08,15,05,20,13.80
2014,08,15,05,21,13.80
2014,08,15,05,22,13.80
2014,08,15,05,23,13.80
2014,08,15,05,24,13.80
2014,08,15,05,25,13.80
2014,08,15,05,26,13.80
2014,08,15,05,27,13.80
2014,08,15,05,28,13.80
2014,08,15,05,29,13.80
2014,08,15,05,30,13.80
2014,08,15,05,31,13.80
2014,08,15,05,32,13.80
2014,08,15,05,33,13.80
2014,08,15,05,34,13.80
2014,08,15,05,35,13.80
2014,08,15,05,36,13.80
2014,08,15,05,37,13.70
2014,08,15,05,38,13.70
2014,08,15,05,39,13.70
2014,08,15,05,40,13.70
2014,08,15,05,41,13.70
2014,08,15,05,42,13.70
2014,08,15,05,43,13.70
2014,08,15,05,44,13.60
2014,08,15,05,45,13.60
2014,08,15,05,46,13.60
2014,08,15,05,47,13.50
2014,08,15,05,48,13.50
2014,08,15,05,49,13.40
2014,08,15,05,50,13.40
2014,08,15,05,51,13.30
2014,08,15,05,52,13.30
2014,08,15,05,53,13.20
2014,08,15,05,54,13.20
2014,08,15,05,55,13.20
2014,08,15,05,56,13.20
2014,08,15,05,57,13.10
2014,08,15,05,58,13.10
2014,08,15,05,59,13.10
2014,08,15,06,00,13.10
2014,08,15,06,01,13.10
2014,08,15,06,02,13.00
2014,08,15,06,03,13.00
2014,08,15,06,04,13.00
2014,08,15,06,05,12.90
2014,08,15,06,06,12.90
2014,08,15,06,07,12.90
2014,08,15,06,08,12.90
2014,08,15,06,09,12.90
2014,08,15,06,10,12.90
2014,08,15,06,11,12.90
2014,08,15,06,12,12.90
2014,08,15,06,13,12.90
2014,08,15,06,14,12.90
2014,08,15,06,15,12.90
2014,08,15,06,16,12.80
2014,08,15,06,17,12.80
2014,08,15,06,18,12.80
2014,08,15,06,19,12.80
2014,08,15,06,20,12.80
2014,08,15,06,21,12.80
2014,08,15,06,22,12.80
2014,08,15,06,23,12.90
2014,08,15,06,24,12.90
2014,08,15,06,25,12.90
2014,08,15,06,26,12.90
2014,08,15,06,27,12.90
2014,08,15,06,28,12.90
2014,08,15,06,29,12.90
2014,08,15,06,30,12.90
2014,08,15,06,31,12.90
2014,08,15,06,32,12.90
2014,08,15,06,33,12.90
2014,08,15,06,34,12.90
2014,08,15,06,35,12.90
2014,08,15,06,36,12.90
2014,08,15,06,37,12.90
2014,08,15,06,38,12.80
2014,08,15,06,39,12.80
2014,08,15,06,40,12.80
2014,08,15,06,41,12.80
2014,08,15,06,42,12.80
2014,08,15,06,43,12.80
2014,08,15,06,44,12.70
2014,08,15,06,45,12.70
2014,08,15,06,46,12.70
2014,08,15,06,47,12.70
2014,08,15,06,48,12.70
2014,08,15,06,49,12.70
2014,08,15,06,50,12.70
2014,08,15,06,51,12.70
2014,08,15,06,52,12.70
2014,08,15,06,53,12.70
2014,08,15,06,54,12.70
2014,08,15,06,55,12.70
2014,08,15,06,56,12.70
2014,08,15,06,57,12.70
2014,08,15,06,58,12.70
2014,08,15,06,59,12.70
2014,08,15,07,00,12.70
2014,08,15,07,01,12.70
2014,08,15,07,02,12.70
2014,08,15,07,03,12.70
2014,08,15,07,04,12.70
2014,08,15,07,05,12.70
2014,08,15,07,06,12.70
2014,08,15,07,07,12.70
2014,08,15,07,08,12.70
2014,08,15,07,09,12.70
2014,08,15,07,10,12.70
2014,08,15,07,11,12.70
2014,08,15,07,12,12.70
2014,08,15,07,13,12.70
2014,08,15,07,14,12.70
2014,08,15,07,15,12.70
2014,08,15,07,16,12.70
2014,08,15,07,17,12.70
2014,08,15,07,18,12.70
2014,08,15,07,19,12.70
2014,08,15,07,20,12.70
2014,08,15,07,21,12.70
2014,08,15,07,22,12.70
2014,08,15,07,23,12.60
2014,08,15,07,24,12.70
2014,08,15,07,25,12.70
2014,08,15,07,26,12.70
2014,08,15,07,27,12.70
2014,08,15,07,28,12.70
2014,08,15,07,29,12.70
2014,08,15,07,30,12.70
2014,08,15,07,31,12.70
2014,08,15,07,32,12.70
2014,08,15,07,33,12.70
2014,08,15,07,34,12.70
2014,08,15,07,35,12.70
2014,08,15,07,36,12.70
2014,08,15,07,37,12.70
2014,08,15,07,38,12.70
2014,08,15,07,39,12.70
2014,08,15,07,40,12.70
2014,08,15,07,41,12.70
2014,08,15,07,42,12.70
2014,08,15,07,43,12.70
2014,08,15,07,44,12.80
2014,08,15,07,45,12.80
2014,08,15,07,46,12.80
2014,08,15,07,47,12.80
2014,08,15,07,48,12.80
2014,08,15,07,49,12.80
2014,08,15,07,50,12.90
2014,08,15,07,51,12.90
2014,08,15,07,52,12.90
2014,08,15,07,53,12.90
2014,08,15,07,54,12.90
2014,08,15,07,55,12.90
2014,08,15,07,56,13.00
2014,08,15,07,57,13.00
2014,08,15,07,58,13.00
2014,08,15,07,59,13.10
2014,08,15,08,00,13.10
2014,08,15,08,01,13.10
2014,08,15,08,02,13.10
2014,08,15,08,03,13.10
2014,08,15,08,04,13.10
2014,08,15,08,05,13.10
2014,08,15,08,06,13.10
2014,08,15,08,07,13.20
2014,08,15,08,08,13.10
2014,08,15,08,09,13.20
2014,08,15,08,10,13.10
2014,08,15,08,11,13.10
2014,08,15,08,12,13.10
2014,08,15,08,13,13.10
2014,08,15,08,14,13.10
2014,08,15,08,15,13.10
2014,08,15,08,16,13.20
2014,08,15,08,17,13.20
2014,08,15,08,18,13.20
2014,08,15,08,19,13.20
2014,08,15,08,20,13.20
2014,08,15,08,21,13.20
2014,08,15,08,22,13.20
2014,08,15,08,23,13.20
2014,08,15,08,24,13.20
2014,08,15,08,25,13.20
2014,08,15,08,26,13.20
2014,08,15,08,27,13.20
2014,08,15,08,28,13.20
2014,08,15,08,29,13.20
2014,08,15,08,30,13.20
2014,08,15,08,31,13.20
2014,08,15,08,32,13.20
2014,08,15,08,33,13.20
2014,08,15,08,34,13.20
2014,08,15,08,35,13.20
2014,08,15,08,36,13.20
2014,08,15,08,37,13.20
2014,08,15,08,38,13.20
2014,08,15,08,39,13.20
2014,08,15,08,40,13.10
2014,08,15,08,41,13.10
2014,08,15,08,42,13.00
2014,08,15,08,43,13.00
2014,08,15,08,44,13.00
2014,08,15,08,45,13.00
2014,08,15,08,46,12.90
2014,08,15,08,47,12.90
2014,08,15,08,48,12.90
2014,08,15,08,49,12.90
2014,08,15,08,50,12.90
2014,08,15,08,51,13.00
2014,08,15,08,52,13.00
2014,08,15,08,53,13.00
2014,08,15,08,54,13.00
2014,08,15,08,55,13.10
2014,08,15,08,56,13.10
2014,08,15,08,57,13.10
2014,08,15,08,58,13.10
2014,08,15,08,59,13.10
2014,08,15,09,00,13.10
2014,08,15,09,01,13.10
2014,08,15,09,02,13.20
2014,08,15,09,03,13.20
2014,08,15,09,04,13.20
2014,08,15,09,05,13.20
2014,08,15,09,06,13.20
2014,08,15,09,07,13.30
2014,08,15,09,08,13.30
2014,08,15,09,09,13.30
2014,08,15,09,10,13.40
2014,08,15,09,11,13.40
2014,08,15,09,12,13.40
2014,08,15,09,13,13.50
2014,08,15,09,14,13.50
2014,08,15,09,15,13.50
2014,08,15,09,16,13.60
2014,08,15,09,17,13.60
2014,08,15,09,18,13.60
2014,08,15,09,19,13.70
2014,08,15,09,20,13.70
2014,08,15,09,21,13.70
2014,08,15,09,22,13.70
2014,08,15,09,23,13.70
2014,08,15,09,24,13.80
2014,08,15,09,25,13.80
2014,08,15,09,26,13.80
2014,08,15,09,27,13.90
2014,08,15,09,28,13.90
2014,08,15,09,29,14.00
2014,08,15,09,30,14.00
2014,08,15,09,31,14.00
2014,08,15,09,32,14.10
2014,08,15,09,33,14.10
2014,08,15,09,34,14.10
2014,08,15,09,35,14.20
2014,08,15,09,36,14.20
2014,08,15,09,37,14.20
2014,08,15,09,38,14.20
2014,08,15,09,39,14.30
2014,08,15,09,40,14.30
2014,08,15,09,41,14.30
2014,08,15,09,42,14.40
2014,08,15,09,43,14.40
2014,08,15,09,44,14.50
2014,08,15,09,45,14.50
2014,08,15,09,46,14.60
2014,08,15,09,47,14.60
2014,08,15,09,48,14.70
2014,08,15,09,49,14.70
2014,08,15,09,50,14.80
2014,08,15,09,51,14.80
2014,08,15,09,52,14.80
2014,08,15,09,53,14.90
2014,08,15,09,54,14.90
2014,08,15,09,55,15.00
2014,08,15,09,56,15.00
2014,08,15,09,57,15.10
2014,08,15,09,58,15.10
2014,08,15,09,59,15.20
2014,08,15,10,00,15.20
2014,08,15,10,01,15.30
2014,08,15,10,02,15.30
2014,08,15,10,03,15.40
2014,08,15,10,04,15.50
2014,08,15,10,05,15.50
2014,08,15,10,06,15.60
2014,08,15,10,07,15.70
2014,08,15,10,08,15.80
2014,08,15,10,09,15.90
2014,08,15,10,10,15.90
2014,08,15,10,11,16.00
2014,08,15,10,12,16.10
2014,08,15,10,13,16.10
2014,08,15,10,14,16.20
2014,08,15,10,15,16.30
2014,08,15,10,16,16.40
2014,08,15,10,17,16.40
2014,08,15,10,18,16.50
2014,08,15,10,19,16.60
2014,08,15,10,20,16.70
2014,08,15,10,21,16.70
2014,08,15,10,22,16.80
2014,08,15,10,23,16.80
2014,08,15,10,24,16.90
2014,08,15,10,25,16.90
2014,08,15,10,26,17.00
2014,08,15,10,27,17.10
2014,08,15,10,28,17.10
2014,08,15,10,29,17.20
2014,08,15,10,30,17.20
2014,08,15,10,31,17.30
2014,08,15,10,32,17.30
2014,08,15,10,33,17.30
2014,08,15,10,34,17.40
2014,08,15,10,35,17.50
2014,08,15,10,36,17.50
2014,08,15,10,37,17.60
2014,08,15,10,38,17.70
2014,08,15,10,39,17.70
2014,08,15,10,40,17.80
2014,08,15,10,41,17.90
2014,08,15,10,42,18.00
2014,08,15,10,43,18.10
2014,08,15,10,44,18.20
2014,08,15,10,45,18.30
2014,08,15,10,46,18.40
2014,08,15,10,47,18.50
2014,08,15,10,48,18.60
2014,08,15,10,49,18.70
2014,08,15,10,50,18.80
2014,08,15,10,51,18.90
2014,08,15,10,52,19.00
2014,08,15,10,53,19.10
2014,08,15,10,54,19.20
2014,08,15,10,55,19.30
2014,08,15,10,56,19.40
2014,08,15,10,57,19.50
2014,08,15,10,58,19.50
2014,08,15,10,59,19.50
2014,08,15,11,00,19.60
2014,08,15,11,01,19.60
2014,08,15,11,02,19.70
2014,08,15,11,03,19.80
2014,08,15,11,04,19.80
2014,08,15,11,05,19.90
2014,08,15,11,06,19.90
2014,08,15,11,07,19.90
2014,08,15,11,08,19.90
2014,08,15,11,09,19.90
2014,08,15,11,10,20.00
2014,08,15,11,11,20.00
2014,08,15,11,12,20.10
2014,08,15,11,13,20.10
2014,08,15,11,14,20.10
2014,08,15,11,15,20.20
2014,08,15,11,16,20.20
2014,08,15,11,17,20.30
2014,08,15,11,18,20.30
2014,08,15,11,19,20.30
2014,08,15,11,20,20.30
2014,08,15,11,21,20.30
2014,08,15,11,22,20.40
2014,08,15,11,23,20.40
2014,08,15,11,24,20.50
2014,08,15,11,25,20.50
2014,08,15,11,26,20.50
2014,08,15,11,27,20.60
2014,08,15,11,28,20.60
2014,08,15,11,29,20.60
2014,08,15,11,30,20.60
2014,08,15,11,31,20.60
2014,08,15,11,32,20.60
2014,08,15,11,33,20.60
2014,08,15,11,34,20.60
2014,08,15,11,35,20.60
2014,08,15,11,36,20.60
2014,08,15,11,37,20.60
2014,08,15,11,38,20.60
2014,08,15,11,39,20.60
2014,08,15,11,40,20.60
2014,08,15,11,41,20.50
2014,08,15,11,42,20.50
2014,08,15,11,43,20.50
2014,08,15,11,44,20.40
2014,08,15,11,45,20.40
2014,08,15,11,46,20.40
2014,08,15,11,47,20.30
2014,08,15,11,48,20.30
2014,08,15,11,49,20.30
2014,08,15,11,50,20.30
2014,08,15,11,51,20.30
2014,08,15,11,52,20.30
2014,08,15,11,53,20.30
2014,08,15,11,54,20.20
2014,08,15,11,55,20.20
2014,08,15,11,56,20.10
2014,08,15,11,57,20.10
2014,08,15,11,58,20.10
2014,08,15,11,59,20.10
2014,08,15,12,00,20.10
2014,08,15,12,01,20.10
2014,08,15,12,02,20.10
2014,08,15,12,03,20.00
2014,08,15,12,04,20.00
2014,08,15,12,05,20.00
2014,08,15,12,06,20.00
2014,08,15,12,07,20.00
2014,08,15,12,08,20.00
2014,08,15,12,09,20.00
2014,08,15,12,10,19.90
2014,08,15,12,11,19.90
2014,08,15,12,12,19.90
2014,08,15,12,13,19.90
2014,08,15,12,14,19.90
2014,08,15,12,15,19.90
2014,08,15,12,16,20.00
2014,08,15,12,17,20.00
2014,08,15,12,18,20.00
2014,08,15,12,19,20.00
2014,08,15,12,20,20.00
2014,08,15,12,21,19.90
2014,08,15,12,22,20.00
2014,08,15,12,23,20.00
2014,08,15,12,24,20.00
2014,08,15,12,25,20.00
2014,08,15,12,26,20.10
2014,08,15,12,27,20.10
2014,08,15,12,28,20.10
2014,08,15,12,29,20.10
2014,08,15,12,30,20.10
2014,08,15,12,31,20.10
2014,08,15,12,32,20.10
2014,08,15,12,33,20.20
2014,08,15,12,34,20.20
2014,08,15,12,35,20.20
2014,08,15,12,36,20.20
2014,08,15,12,37,20.20
2014,08,15,12,38,20.20
2014,08,15,12,39,20.30
2014,08,15,12,40,20.30
2014,08,15,12,41,20.30
2014,08,15,12,42,20.30
2014,08,15,12,43,20.30
2014,08,15,12,44,20.30
2014,08,15,12,45,20.30
2014,08,15,12,46,20.30
2014,08,15,12,47,20.40
2014,08,15,12,48,20.40
2014,08,15,12,49,20.50
2014,08,15,12,50,20.50
2014,08,15,12,51,20.60
2014,08,15,12,52,20.60
2014,08,15,12,53,20.70
2014,08,15,12,54,20.70
2014,08,15,12,55,20.70
2014,08,15,12,56,20.80
2014,08,15,12,57,20.80
2014,08,15,12,58,20.80
2014,08,15,12,59,20.80
2014,08,15,13,00,20.80
2014,08,15,13,01,20.90
2014,08,15,13,02,20.90
2014,08,15,13,03,20.90
2014,08,15,13,04,20.90
2014,08,15,13,05,20.90
2014,08,15,13,06,20.90
2014,08,15,13,07,21.00
2014,08,15,13,08,21.00
2014,08,15,13,09,21.10
2014,08,15,13,10,21.00
2014,08,15,13,11,21.00
2014,08,15,13,12,21.10
2014,08,15,13,13,21.10
2014,08,15,13,14,21.10
2014,08,15,13,15,21.10
2014,08,15,13,16,21.20
2014,08,15,13,17,21.20
2014,08,15,13,18,21.30
2014,08,15,13,19,21.30
2014,08,15,13,20,21.30
2014,08,15,13,21,21.20
2014,08,15,13,22,21.20
2014,08,15,13,23,21.10
2014,08,15,13,24,21.10
2014,08,15,13,25,21.10
2014,08,15,13,26,21.00
2014,08,15,13,27,21.00
2014,08,15,13,28,20.90
2014,08,15,13,29,20.90
2014,08,15,13,30,21.00
2014,08,15,13,31,21.00
2014,08,15,13,32,21.00
2014,08,15,13,33,21.00
2014,08,15,13,34,21.00
2014,08,15,13,35,21.00
2014,08,15,13,36,21.00
2014,08,15,13,37,21.00
2014,08,15,13,38,21.00
2014,08,15,13,39,21.00
2014,08,15,13,40,21.00
2014,08,15,13,41,20.90
2014,08,15,13,42,20.90
2014,08,15,13,43,20.90
2014,08,15,13,44,20.90
2014,08,15,13,45,20.90
2014,08,15,13,46,20.90
2014,08,15,13,47,20.90
2014,08,15,13,48,20.90
2014,08,15,13,49,21.00
2014,08,15,13,50,21.10
2014,08,15,13,51,21.10
2014,08,15,13,52,21.10
2014,08,15,13,53,21.10
2014,08,15,13,54,21.10
2014,08,15,13,55,21.10
2014,08,15,13,56,21.10
2014,08,15,13,57,21.10
2014,08,15,13,58,21.10
2014,08,15,13,59,21.10
2014,08,15,14,00,21.10
2014,08,15,14,01,21.10
2014,08,15,14,02,21.10
2014,08,15,14,03,21.10
2014,08,15,14,04,21.10
2014,08,15,14,05,21.20
2014,08,15,14,06,21.20
2014,08,15,14,07,21.30
2014,08,15,14,08,21.30
2014,08,15,14,09,21.30
2014,08,15,14,10,21.40
2014,08,15,14,11,21.40
2014,08,15,14,12,21.40
2014,08,15,14,13,21.50
2014,08,15,14,14,21.50
2014,08,15,14,15,21.60
2014,08,15,14,16,21.60
2014,08,15,14,17,21.60
2014,08,15,14,18,21.60
2014,08,15,14,19,21.60
2014,08,15,14,20,21.50
2014,08,15,14,21,21.40
2014,08,15,14,22,21.40
2014,08,15,14,23,21.40
2014,08,15,14,24,21.30
2014,08,15,14,25,21.30
2014,08,15,14,26,21.20
2014,08,15,14,27,21.20
2014,08,15,14,28,21.20
2014,08,15,14,29,21.10
2014,08,15,14,30,21.10
2014,08,15,14,31,21.10
2014,08,15,14,32,21.00
2014,08,15,14,33,20.90
2014,08,15,14,34,20.80
2014,08,15,14,35,20.80
2014,08,15,14,36,20.70
2014,08,15,14,37,20.70
2014,08,15,14,38,20.70
2014,08,15,14,39,20.70
2014,08,15,14,40,20.70
2014,08,15,14,41,20.70
2014,08,15,14,42,20.70
2014,08,15,14,43,20.70
2014,08,15,14,44,20.70
2014,08,15,14,45,20.60
2014,08,15,14,46,20.60
2014,08,15,14,47,20.50
2014,08,15,14,48,20.40
2014,08,15,14,49,20.30
2014,08,15,14,50,20.30
2014,08,15,14,51,20.20
2014,08,15,14,52,20.10
2014,08,15,14,53,20.10
2014,08,15,14,54,20.10
2014,08,15,14,55,20.10
2014,08,15,14,56,20.20
2014,08,15,14,57,20.20
2014,08,15,14,58,20.30
2014,08,15,14,59,20.30
2014,08,15,15,00,20.30
2014,08,15,15,01,20.40
2014,08,15,15,02,20.40
2014,08,15,15,03,20.40
2014,08,15,15,04,20.40
2014,08,15,15,05,20.40
2014,08,15,15,06,20.40
2014,08,15,15,07,20.40
2014,08,15,15,08,20.40
2014,08,15,15,09,20.30
2014,08,15,15,10,20.30
2014,08,15,15,11,20.30
2014,08,15,15,12,20.30
2014,08,15,15,13,20.30
2014,08,15,15,14,20.30
2014,08,15,15,15,20.30
2014,08,15,15,16,20.30
2014,08,15,15,17,20.30
2014,08,15,15,18,20.30
2014,08,15,15,19,20.30
2014,08,15,15,20,20.30
2014,08,15,15,21,20.30
2014,08,15,15,22,20.20
2014,08,15,15,23,20.10
2014,08,15,15,24,19.90
2014,08,15,15,25,19.80
2014,08,15,15,26,19.80
2014,08,15,15,27,19.70
2014,08,15,15,28,19.70
2014,08,15,15,29,19.70
2014,08,15,15,30,19.60
2014,08,15,15,31,19.60
2014,08,15,15,32,19.60
2014,08,15,15,33,19.60
2014,08,15,15,34,19.60
2014,08,15,15,35,19.60
2014,08,15,15,36,19.60
2014,08,15,15,37,19.70
2014,08,15,15,38,19.70
2014,08,15,15,39,19.70
2014,08,15,15,40,19.70
2014,08,15,15,41,19.70
2014,08,15,15,42,19.70
2014,08,15,15,43,19.70
2014,08,15,15,44,19.70
2014,08,15,15,45,19.70
2014,08,15,15,46,19.70
2014,08,15,15,47,19.70
2014,08,15,15,48,19.70
2014,08,15,15,49,19.70
2014,08,15,15,50,19.70
2014,08,15,15,51,19.70
2014,08,15,15,52,19.80
2014,08,15,15,53,19.80
2014,08,15,15,54,19.80
2014,08,15,15,55,19.80
2014,08,15,15,56,19.90
2014,08,15,15,57,19.90
2014,08,15,15,58,19.90
2014,08,15,15,59,19.90
2014,08,15,16,00,19.80
2014,08,15,16,01,19.80
2014,08,15,16,02,19.80
2014,08,15,16,03,19.70
2014,08,15,16,04,19.70
2014,08,15,16,05,19.60
2014,08,15,16,06,19.60
2014,08,15,16,07,19.60
2014,08,15,16,08,19.50
2014,08,15,16,09,19.60
2014,08,15,16,10,19.60
2014,08,15,16,11,19.60
2014,08,15,16,12,19.70
2014,08,15,16,13,19.70
2014,08,15,16,14,19.80
2014,08,15,16,15,19.80
2014,08,15,16,16,19.80
2014,08,15,16,17,19.80
2014,08,15,16,18,19.80
2014,08,15,16,19,19.80
2014,08,15,16,20,19.80
2014,08,15,16,21,19.80
2014,08,15,16,22,19.80
2014,08,15,16,23,19.80
2014,08,15,16,24,19.80
2014,08,15,16,25,19.80
2014,08,15,16,26,19.80
2014,08,15,16,27,19.80
2014,08,15,16,28,19.80
2014,08,15,16,29,19.80
2014,08,15,16,30,19.80
2014,08,15,16,31,19.80
2014,08,15,16,32,19.80
2014,08,15,16,33,19.80
2014,08,15,16,34,19.80
2014,08,15,16,35,19.80
2014,08,15,16,36,19.80
2014,08,15,16,37,19.70
2014,08,15,16,38,19.70
2014,08,15,16,39,19.60
2014,08,15,16,40,19.50
2014,08,15,16,41,19.50
2014,08,15,16,42,19.40
2014,08,15,16,43,19.30
2014,08,15,16,44,19.30
2014,08,15,16,45,19.30
2014,08,15,16,46,19.30
2014,08,15,16,47,19.30
2014,08,15,16,48,19.30
2014,08,15,16,49,19.20
2014,08,15,16,50,19.20
2014,08,15,16,51,19.20
2014,08,15,16,52,19.20
2014,08,15,16,53,19.10
2014,08,15,16,54,19.10
2014,08,15,16,55,19.00
2014,08,15,16,56,19.00
2014,08,15,16,57,18.90
2014,08,15,16,58,18.90
2014,08,15,16,59,18.80
2014,08,15,17,00,18.80
2014,08,15,17,01,18.80
2014,08,15,17,02,18.70
2014,08,15,17,03,18.70
2014,08,15,17,04,18.60
2014,08,15,17,05,18.60
2014,08,15,17,06,18.60
2014,08,15,17,07,18.50
2014,08,15,17,08,18.50
2014,08,15,17,09,18.40
2014,08,15,17,10,18.40
2014,08,15,17,11,18.30
2014,08,15,17,12,18.30
2014,08,15,17,13,18.30
2014,08,15,17,14,18.30
2014,08,15,17,15,18.20
2014,08,15,17,16,18.20
2014,08,15,17,17,18.20
2014,08,15,17,18,18.20
2014,08,15,17,19,18.20